CCA4004 ZSTX-ZSPD

Flight info

Callsign CCA4004
Flight time 0h 58m
Altitude 29100
Route ELN81D ELNEX G204 SHZ W58 XSY
Aircraft A320/M-SDE3FGHIRWY/LB1

Departure

Time 2026-05-04 14:43
Airport Huangshan Tunxi International Airport (ZSTX)

Arrival

Time 2026-05-04 15:41
Airport Shanghai Pudong International Airport (ZSPD)
Time Latitude Longitude Altitude Speed Heading
2026-05-04 14:10 29.73081 118.25499 455 ft 0 kts 214°
2026-05-04 14:37 29.73088 118.25504 437 ft 5 kts 214°
2026-05-04 14:37 29.73120 118.25559 443 ft 11 kts 283°
2026-05-04 14:37 29.73105 118.25595 439 ft 0 kts 300°
2026-05-04 14:37 29.73111 118.25583 439 ft 4 kts 300°
2026-05-04 14:38 29.73141 118.25572 447 ft 7 kts 12°
2026-05-04 14:38 29.73192 118.25609 441 ft 10 kts 39°
2026-05-04 14:38 29.73245 118.25659 456 ft 10 kts 39°
2026-05-04 14:38 29.73307 118.25687 448 ft 10 kts 352°
2026-05-04 14:39 29.73368 118.25622 457 ft 14 kts 309°
2026-05-04 14:39 29.73432 118.25528 455 ft 16 kts 308°
2026-05-04 14:39 29.73504 118.25423 453 ft 18 kts 308°
2026-05-04 14:40 29.73672 118.25171 456 ft 22 kts 307°
2026-05-04 14:40 29.73771 118.25024 457 ft 24 kts 308°
2026-05-04 14:40 29.73882 118.24866 456 ft 25 kts 309°
2026-05-04 14:40 29.73979 118.24735 457 ft 22 kts 311°
2026-05-04 14:41 29.74029 118.24631 455 ft 23 kts 294°
2026-05-04 14:41 29.74067 118.24577 455 ft 0 kts 352°
2026-05-04 14:41 29.74069 118.24584 455 ft 1 kts 62°
2026-05-04 14:42 29.74044 118.24629 455 ft 0 kts 127°
2026-05-04 14:42 29.74029 118.24653 457 ft 24 kts 127°
2026-05-04 14:43 29.73756 118.25053 456 ft 98 kts 128°
2026-05-04 14:43 29.73209 118.25852 459 ft 153 kts 128°
2026-05-04 14:43 29.72524 118.26840 1003 ft 157 kts 128°
2026-05-04 14:43 29.71853 118.27831 1707 ft 157 kts 128°
2026-05-04 14:44 29.71152 118.28861 2115 ft 174 kts 128°
2026-05-04 14:44 29.70359 118.30030 2402 ft 196 kts 128°
2026-05-04 14:44 29.69444 118.31322 2692 ft 221 kts 134°
2026-05-04 14:44 29.68210 118.32531 3101 ft 245 kts 147°
2026-05-04 14:45 29.66631 118.33410 3763 ft 258 kts 162°
2026-05-04 14:45 29.64858 118.33802 4693 ft 262 kts 176°
2026-05-04 14:45 29.63068 118.33655 5597 ft 266 kts 191°
2026-05-04 14:45 29.61279 118.32924 6478 ft 272 kts 207°
2026-05-04 14:46 29.59725 118.31649 7260 ft 279 kts 223°
2026-05-04 14:46 29.58518 118.29877 8066 ft 285 kts 240°
2026-05-04 14:46 29.57789 118.27741 8873 ft 291 kts 257°
2026-05-04 14:46 29.57629 118.25409 9672 ft 296 kts 275°
2026-05-04 14:47 29.58066 118.23093 10008 ft 298 kts 293°
2026-05-04 14:47 29.59097 118.21036 10087 ft 296 kts 310°
2026-05-04 14:47 29.60587 118.19448 10106 ft 294 kts 327°
2026-05-04 14:47 29.62398 118.18342 10104 ft 293 kts 341°
2026-05-04 14:48 29.64423 118.17776 10114 ft 310 kts 355°
2026-05-04 14:48 29.66637 118.17829 9983 ft 332 kts 11°
2026-05-04 14:48 29.68827 118.18622 9890 ft 316 kts 27°
2026-05-04 14:48 29.70621 118.19952 9900 ft 299 kts 41°
2026-05-04 14:49 29.71982 118.21636 9903 ft 288 kts 55°
2026-05-04 14:49 29.72949 118.23673 9909 ft 286 kts 69°
2026-05-04 14:49 29.73448 118.25878 9906 ft 285 kts 83°
2026-05-04 14:49 29.73484 118.28156 9950 ft 287 kts 96°
2026-05-04 14:50 29.73250 118.30469 10535 ft 297 kts 96°
2026-05-04 14:50 29.73017 118.32926 10804 ft 320 kts 96°
2026-05-04 14:50 29.72777 118.35558 11024 ft 343 kts 96°
2026-05-04 14:50 29.72521 118.38362 11172 ft 366 kts 96°
2026-05-04 14:51 29.72241 118.41366 11313 ft 386 kts 96°
2026-05-04 14:51 29.71948 118.44485 11733 ft 396 kts 96°
2026-05-04 14:51 29.71652 118.47653 12283 ft 402 kts 96°
2026-05-04 14:51 29.71357 118.50764 12751 ft 407 kts 96°
2026-05-04 14:52 29.71037 118.54119 12890 ft 409 kts 96°
2026-05-04 14:52 29.70724 118.57374 12912 ft 409 kts 96°
2026-05-04 14:52 29.70410 118.60626 12915 ft 410 kts 96°
2026-05-04 14:52 29.70094 118.63875 12914 ft 410 kts 96°
2026-05-04 14:53 29.69775 118.67140 12915 ft 410 kts 96°
2026-05-04 14:53 29.69460 118.70358 12917 ft 410 kts 96°
2026-05-04 14:53 29.69143 118.73579 12914 ft 410 kts 96°
2026-05-04 14:53 29.68846 118.76909 12915 ft 410 kts 95°
2026-05-04 14:54 29.68593 118.80191 12917 ft 410 kts 95°
2026-05-04 14:54 29.68365 118.83414 12911 ft 410 kts 94°
2026-05-04 14:54 29.68135 118.86729 13196 ft 414 kts 94°
2026-05-04 14:54 29.67900 118.89978 13823 ft 417 kts 95°
2026-05-04 14:55 29.67648 118.93332 14339 ft 421 kts 95°
2026-05-04 14:55 29.67383 118.96707 14802 ft 426 kts 95°
2026-05-04 14:55 29.67107 119.00165 15251 ft 432 kts 95°
2026-05-04 14:55 29.66833 119.03608 15673 ft 437 kts 95°
2026-05-04 14:56 29.66555 119.07130 16109 ft 442 kts 95°
2026-05-04 14:56 29.66278 119.10626 16520 ft 448 kts 95°
2026-05-04 14:56 29.65986 119.14259 16945 ft 453 kts 95°
2026-05-04 14:56 29.65703 119.17802 17350 ft 458 kts 95°
2026-05-04 14:57 29.65402 119.21547 17773 ft 463 kts 95°
2026-05-04 14:57 29.65105 119.25234 18202 ft 467 kts 95°
2026-05-04 14:57 29.64804 119.28983 18588 ft 472 kts 95°
2026-05-04 14:57 29.64498 119.32763 18941 ft 476 kts 96°
2026-05-04 14:58 29.64188 119.36567 19299 ft 480 kts 96°
2026-05-04 14:58 29.63872 119.40399 19631 ft 484 kts 96°
2026-05-04 14:58 29.63554 119.44257 19992 ft 487 kts 96°
2026-05-04 14:58 29.63235 119.48143 20316 ft 490 kts 96°
2026-05-04 14:59 29.62973 119.52067 20641 ft 494 kts 94°
2026-05-04 14:59 29.62821 119.56013 20980 ft 497 kts 92°
2026-05-04 14:59 29.62702 119.64073 21618 ft 504 kts 91°
2026-05-04 15:00 29.62658 119.68117 21956 ft 507 kts 92°
2026-05-04 15:00 29.62606 119.72188 22229 ft 511 kts 92°
2026-05-04 15:00 29.62540 119.76278 22529 ft 514 kts 92°
2026-05-04 15:01 29.62365 119.84464 22822 ft 522 kts 93°
2026-05-04 15:01 29.62263 119.88721 22818 ft 523 kts 93°
2026-05-04 15:01 29.62164 119.92899 22814 ft 523 kts 93°
2026-05-04 15:01 29.62069 119.97077 22820 ft 523 kts 93°
2026-05-04 15:02 29.61973 120.01239 22824 ft 524 kts 93°
2026-05-04 15:02 29.61875 120.05438 22817 ft 524 kts 93°
2026-05-04 15:02 29.61779 120.09630 22815 ft 524 kts 93°
2026-05-04 15:02 29.61682 120.13815 22824 ft 524 kts 93°
2026-05-04 15:03 29.61584 120.17998 22819 ft 524 kts 93°
2026-05-04 15:03 29.61483 120.22179 22816 ft 524 kts 93°
2026-05-04 15:03 29.61378 120.26356 22819 ft 524 kts 93°
2026-05-04 15:03 29.61276 120.30550 22817 ft 524 kts 93°
2026-05-04 15:04 29.61179 120.34727 22829 ft 524 kts 93°
2026-05-04 15:04 29.61083 120.38914 22820 ft 524 kts 93°
2026-05-04 15:04 29.60988 120.43103 22811 ft 524 kts 93°
2026-05-04 15:04 29.60892 120.47279 22821 ft 524 kts 93°
2026-05-04 15:05 29.60794 120.51448 22803 ft 524 kts 93°
2026-05-04 15:05 29.60693 120.55591 22792 ft 523 kts 93°
2026-05-04 15:05 29.60583 120.59841 22796 ft 524 kts 94°
2026-05-04 15:05 29.60472 120.64019 22800 ft 524 kts 93°
2026-05-04 15:06 29.60362 120.68195 22802 ft 524 kts 94°
2026-05-04 15:06 29.60251 120.72379 22806 ft 524 kts 93°
2026-05-04 15:06 29.60373 120.76570 22679 ft 526 kts 85°
2026-05-04 15:07 29.62060 120.84683 22157 ft 521 kts 65°
2026-05-04 15:07 29.63776 120.88330 21911 ft 516 kts 54°
2026-05-04 15:07 29.65756 120.91756 21652 ft 514 kts 54°
2026-05-04 15:07 29.67735 120.95164 21411 ft 511 kts 54°
2026-05-04 15:08 29.69706 120.98565 21152 ft 509 kts 54°
2026-05-04 15:08 29.71655 121.01947 20904 ft 506 kts 54°
2026-05-04 15:08 29.73588 121.05317 20656 ft 503 kts 54°
2026-05-04 15:08 29.75505 121.08670 20412 ft 501 kts 54°
2026-05-04 15:09 29.77414 121.12016 20164 ft 498 kts 54°
2026-05-04 15:09 29.79311 121.15336 19925 ft 496 kts 54°
2026-05-04 15:09 29.81194 121.18636 19787 ft 493 kts 54°
2026-05-04 15:10 29.84946 121.25221 19828 ft 483 kts 54°
2026-05-04 15:10 29.86747 121.28394 19834 ft 462 kts 53°
2026-05-04 15:10 29.90846 121.33685 19547 ft 431 kts 35°
2026-05-04 15:11 29.93244 121.35681 19105 ft 420 kts 26°
2026-05-04 15:11 29.95734 121.37257 18853 ft 418 kts 23°
2026-05-04 15:11 30.00687 121.40318 18424 ft 436 kts 24°
2026-05-04 15:12 30.03345 121.41985 17883 ft 431 kts 25°
2026-05-04 15:12 30.05906 121.43610 17372 ft 409 kts 25°
2026-05-04 15:12 30.08341 121.45159 16620 ft 397 kts 25°
2026-05-04 15:12 30.10740 121.46676 15784 ft 389 kts 26°
2026-05-04 15:13 30.13069 121.48139 14981 ft 382 kts 26°
2026-05-04 15:13 30.15383 121.49588 14173 ft 375 kts 27°
2026-05-04 15:13 30.17656 121.51015 13317 ft 368 kts 27°
2026-05-04 15:13 30.19884 121.52415 12462 ft 361 kts 27°
2026-05-04 15:14 30.22069 121.53785 11599 ft 353 kts 27°
2026-05-04 15:14 30.24208 121.55123 10757 ft 346 kts 27°
2026-05-04 15:14 30.26303 121.56434 10110 ft 339 kts 27°
2026-05-04 15:14 30.28393 121.57738 9876 ft 332 kts 27°
2026-05-04 15:15 30.30365 121.58967 9796 ft 313 kts 27°
2026-05-04 15:15 30.32230 121.60129 9808 ft 296 kts 27°
2026-05-04 15:15 30.34004 121.61232 9810 ft 286 kts 27°
2026-05-04 15:16 30.37488 121.63401 9812 ft 283 kts 27°
2026-05-04 15:16 30.39220 121.64482 9813 ft 283 kts 27°
2026-05-04 15:16 30.42711 121.66668 9817 ft 283 kts 27°
2026-05-04 15:17 30.44448 121.67753 9814 ft 283 kts 27°
2026-05-04 15:17 30.47918 121.69922 9819 ft 284 kts 27°
2026-05-04 15:17 30.49657 121.71010 9818 ft 284 kts 27°
2026-05-04 15:18 30.51394 121.72098 9817 ft 284 kts 27°
2026-05-04 15:18 30.53123 121.73179 9812 ft 284 kts 27°
2026-05-04 15:18 30.54868 121.74271 9815 ft 284 kts 27°
2026-05-04 15:19 30.58345 121.76453 9819 ft 284 kts 27°
2026-05-04 15:19 30.60108 121.77503 9820 ft 284 kts 23°
2026-05-04 15:19 30.63814 121.79039 9819 ft 283 kts 13°
2026-05-04 15:20 30.65723 121.79577 9773 ft 283 kts 12°
2026-05-04 15:20 30.67610 121.80109 9644 ft 282 kts 12°
2026-05-04 15:20 30.69510 121.80645 9331 ft 281 kts 12°
2026-05-04 15:20 30.71399 121.81176 9131 ft 279 kts 12°
2026-05-04 15:21 30.73286 121.81707 8958 ft 279 kts 12°
2026-05-04 15:21 30.75172 121.82238 8755 ft 278 kts 12°
2026-05-04 15:21 30.78924 121.83296 8349 ft 277 kts 12°
2026-05-04 15:22 30.80796 121.83821 8144 ft 276 kts 12°
2026-05-04 15:22 30.82658 121.84342 7949 ft 275 kts 12°
2026-05-04 15:22 30.86282 121.85373 7560 ft 273 kts 12°
2026-05-04 15:23 30.88136 121.85769 7363 ft 272 kts
2026-05-04 15:23 30.90025 121.85857 7167 ft 270 kts 357°
2026-05-04 15:23 30.91892 121.85641 6971 ft 269 kts 349°
2026-05-04 15:23 30.93694 121.85128 6897 ft 266 kts 341°
2026-05-04 15:24 30.97051 121.83266 6903 ft 268 kts 327°
2026-05-04 15:24 30.99956 121.80530 6902 ft 269 kts 320°
2026-05-04 15:25 31.01374 121.79105 6905 ft 269 kts 320°
2026-05-04 15:25 31.02788 121.77685 6897 ft 269 kts 320°
2026-05-04 15:25 31.04205 121.76251 6768 ft 268 kts 319°
2026-05-04 15:26 31.06987 121.73388 5988 ft 265 kts 319°
2026-05-04 15:26 31.08361 121.71965 5603 ft 264 kts 318°
2026-05-04 15:26 31.11084 121.69152 5010 ft 253 kts 317°
2026-05-04 15:27 31.12420 121.67889 4877 ft 242 kts 325°
2026-05-04 15:27 31.15368 121.66320 4548 ft 228 kts 341°
2026-05-04 15:28 31.18376 121.65235 3915 ft 227 kts 341°
2026-05-04 15:28 31.19895 121.64683 3615 ft 227 kts 341°
2026-05-04 15:28 31.22901 121.63588 2983 ft 227 kts 340°
2026-05-04 15:29 31.24389 121.63048 2905 ft 218 kts 340°
2026-05-04 15:30 31.29898 121.60980 2910 ft 205 kts 339°
2026-05-04 15:30 31.33956 121.59427 2907 ft 205 kts 339°
2026-05-04 15:31 31.36646 121.58402 2904 ft 205 kts 339°
2026-05-04 15:31 31.38045 121.58087 2903 ft 208 kts
2026-05-04 15:32 31.40813 121.61250 2912 ft 182 kts 79°
2026-05-04 15:32 31.41318 121.63974 2905 ft 166 kts 80°
2026-05-04 15:33 31.41705 121.66612 2896 ft 161 kts 100°
2026-05-04 15:34 31.39637 121.69144 2921 ft 150 kts 165°
2026-05-04 15:34 31.38649 121.69537 2913 ft 149 kts 165°
2026-05-04 15:34 31.37012 121.70171 2910 ft 149 kts 165°
2026-05-04 15:35 31.35041 121.70922 2910 ft 149 kts 165°
2026-05-04 15:35 31.34067 121.71293 2932 ft 145 kts 166°
2026-05-04 15:35 31.33107 121.71658 2924 ft 144 kts 166°
2026-05-04 15:36 31.31221 121.72373 2912 ft 142 kts 166°
2026-05-04 15:36 31.30279 121.72730 2900 ft 142 kts 166°
2026-05-04 15:36 31.29337 121.73087 2795 ft 142 kts 166°
2026-05-04 15:37 31.28399 121.73443 2642 ft 141 kts 166°
2026-05-04 15:37 31.27472 121.73794 2471 ft 140 kts 166°
2026-05-04 15:37 31.26559 121.74141 2299 ft 138 kts 166°
2026-05-04 15:37 31.25652 121.74485 2114 ft 135 kts 166°
2026-05-04 15:38 31.24765 121.74820 1939 ft 134 kts 166°
2026-05-04 15:38 31.23866 121.75161 1753 ft 134 kts 166°
2026-05-04 15:38 31.22987 121.75494 1578 ft 134 kts 166°
2026-05-04 15:38 31.22103 121.75828 1403 ft 133 kts 165°
2026-05-04 15:39 31.21230 121.76159 1223 ft 132 kts 165°
2026-05-04 15:39 31.20340 121.76496 1043 ft 132 kts 164°
2026-05-04 15:39 31.18599 121.77159 666 ft 133 kts 163°
2026-05-04 15:40 31.17724 121.77491 514 ft 133 kts 162°
2026-05-04 15:40 31.16838 121.77831 329 ft 135 kts 163°
2026-05-04 15:40 31.15945 121.78162 197 ft 136 kts 162°
2026-05-04 15:40 31.15042 121.78506 45 ft 135 kts 162°
2026-05-04 15:41 31.14237 121.78812 22 ft 100 kts 163°
2026-05-04 15:41 31.13735 121.78994 22 ft 50 kts 162°
2026-05-04 15:41 31.13566 121.79057 23 ft 1 kts 160°
2026-05-04 15:41 31.13562 121.79062 23 ft 1 kts 144°
2026-05-04 15:42 31.13543 121.79083 25 ft 7 kts 135°
2026-05-04 15:42 31.13504 121.79158 25 ft 15 kts 120°
2026-05-04 15:42 31.13455 121.79217 23 ft 9 kts 133°
2026-05-04 15:42 31.13445 121.79229 25 ft 0 kts 133°
2026-05-04 15:43 31.13445 121.79230 25 ft 1 kts 133°
2026-05-04 15:43 31.13437 121.79249 23 ft 4 kts 101°
2026-05-04 15:43 31.13461 121.79272 24 ft 6 kts 31°
2026-05-04 15:44 31.13517 121.79285 23 ft 10 kts 349°
2026-05-04 15:44 31.13597 121.79298 23 ft 14 kts 52°
2026-05-04 15:44 31.13608 121.79325 23 ft 0 kts 71°
2026-05-04 15:45 31.13609 121.79328 23 ft 3 kts 71°
2026-05-04 15:45 31.13618 121.79361 23 ft 4 kts 71°
2026-05-04 15:45 31.13628 121.79396 24 ft 7 kts 72°
2026-05-04 15:45 31.13654 121.79487 22 ft 16 kts 72°
2026-05-04 15:46 31.13684 121.79596 23 ft 6 kts 72°
2026-05-04 15:46 31.13695 121.79639 23 ft 5 kts 73°
2026-05-04 15:46 31.13704 121.79675 23 ft 4 kts 73°
2026-05-04 15:46 31.13714 121.79709 24 ft 7 kts 73°
2026-05-04 15:47 31.13737 121.79795 23 ft 15 kts 70°
2026-05-04 15:47 31.13774 121.79921 24 ft 18 kts 71°